Tracking 19562 objects as of 25-Mar-2019
HD Live streaming from Space Station
objects crossing your sky now

FENGYUN 1C DEB

Track FENGYUN 1C DEB now!
10-day predictions


NORAD ID: 30453
Int'l Code: 1999-025AFQ
Perigee: 763.5 km
Apogee: 955.6 km
Inclination: 99.0 °
Period: 102.0 minutes
Semi major axis: 7230 km
RCS: 0.0229 m2 (small)
Launch date: May 10, 1999
Source: People's Republic of China (PRC)
Launch site: Taiyaun Space Center, China (TSC)

Note: This is SATELLITE DEBRIS
aabbcc
Your satellite tracking list
Your tracking list is empty




NASA's NSSDC Master Catalog

Two Line Element Set (TLE):
1 30453U 99025AFQ 19083.63894852  .00000394  00000-0  22083-3 0  9990
2 30453  99.0161 122.5330 0132778   9.4427 115.1278 14.12037927625007
Source of the keplerian elements: AFSPC